Regional Weather Roundup
Issued by NWS

Home | Current Version | Previous Version | Graphics & Text | Print | Product List | Glossary On
Versions: 1 2 3 4 5 6 7 8 9 10 11 12 13 14 15 16 17 18 19 20 21 22 23 24 25 26 27 28 29 30 31 32 33 34 35 36 37 38 39 40 41 42 43 44 45 46 47 48 49 50
000
ASUS43 KMKX 201911
RWRWI

WISCONSIN REGIONAL WEATHER ROUNDUP
NATIONAL WEATHER SERVICE MILWAUKEE/SULLIVAN WI
200 PM CDT FRI OCT 20 2017

NOTE: "FAIR" INDICATES FEW OR NO CLOUDS BELOW 12,000 FEET WITH NO
SIGNIFICANT WEATHER AND/OR OBSTRUCTIONS TO VISIBILITY.

WIZ001-002-006>008-014>016-023>028-202000-
NORTHWEST WISCONSIN

CITY           SKY/WX    TMP DP  RH WIND       PRES   REMARKS
SUPERIOR ARPT  SUNNY     77  50  39 S12G20    29.76F
ASHLAND        SUNNY     76  47  35 S20G30    29.81F
HAYWARD        SUNNY     74  48  39 S20G28    29.84F
SIREN          SUNNY     77  45  32 S16G25    29.80F
CUMBERLAND     SUNNY     72  43  35 S17G24    29.84F
RICE LAKE      SUNNY     75  47  37 S17G24    29.87F
CHETEK         SUNNY     75  51  43 S14G21    29.87F
LADYSMITH      SUNNY     74  50  42 S14       29.90F
EAU CLAIRE     SUNNY     74  47  38 S18G26    29.88F
MENOMONIE      SUNNY     74  51  45 SE12G18   29.87F
NEW RICHMOND   SUNNY     74  45  35 S18G26    29.83F
OSCEOLA        SUNNY     76  47  35 S20G28    29.83F
$$

WIZ003>005-009-010-017-018-202000-
NORTH CENTRAL WISCONSIN

CITY           SKY/WX    TMP DP  RH WIND       PRES   REMARKS
MANITOWISH WTR SUNNY     76  41  28 SW18G25   29.89F
ARBOR VITAE    SUNNY     77  44  31 S17       29.91F
WOODRUFF       SUNNY     77  44  31 S17       29.91F
RHINELANDER    SUNNY     75  46  35 SW14G24   29.95F
EAGLE RIVER    SUNNY     75  40  28 SW12G17   29.93S
LAND O LAKES   SUNNY     77  38  24 SW9G17    29.93F
PHILLIPS       SUNNY     72  47  40 SW16G22   29.90F
TOMAHAWK       SUNNY     75  42  30 S7        29.94F
MEDFORD        SUNNY     72  49  44 S14G20    29.94F
MERRILL        SUNNY     75  48  39 SW12G17   29.95F
$$

WIZ029-030-035-036-043>047-202000-
CENTRAL WISCONSIN

CITY           SKY/WX    TMP DP  RH WIND       PRES   REMARKS
WAUSAU         SUNNY     73  49  42 S12       29.95F
MOSINEE        MOSUNNY   72  50  46 S15       29.98F
MARSHFIELD     SUNNY     75  47  36 S14       29.95F
STEVENS POINT  SUNNY     73  46  38 S14G20    29.98F
WAUPACA        SUNNY     77  48  35 S10       29.99F
WAUTOMA        SUNNY     76  46  34 SW13G20   29.99F
WISC RAPIDS    SUNNY     75  49  39 SW9       29.98F
CAMP DOUGLAS   MOSUNNY   75  50  41 S14       29.97F
$$

WIZ011>013-019>022-031-037>040-048>050-202000-
NORTHEAST WISCONSIN

CITY           SKY/WX    TMP DP  RH WIND       PRES   REMARKS
ANTIGO         SUNNY     73  48  41 SW16      29.98F
SHAWANO        SUNNY     76  49  38 SW8       29.98F
OCONTO         SUNNY     73  53  49 S9        29.98F
STURGEON BAY   SUNNY     73  55  53 S12       30.00F
GREEN BAY      SUNNY     73  54  51 S13G20    30.00F
MANITOWOC      SUNNY     69  53  56 S10       30.02F
APPLETON       MOSUNNY   73  46  38 S16       30.00F
CLINTONVILLE   SUNNY     73  48  40 S8        29.99F
OSHKOSH        SUNNY     74  50  42 S15G21    30.01F
$$

WIZ032>034-041-042-053>061-202000-
SOUTHWEST WISCONSIN

CITY           SKY/WX    TMP DP  RH WIND       PRES   REMARKS
LA CROSSE      SUNNY     75  52  44 S16       29.93F
SPARTA         SUNNY     75  47  37 SW8G17    29.96F
VIROQUA        SUNNY     71  51  48 S14       29.98F
BOSCOBEL       SUNNY     77  52  41 VRB6      29.98F
PRAIRIE DU CHI SUNNY     75  47  36 SE8G17    29.97F
PLATTEVILLE    SUNNY     74  52  46 S15       30.02F
$$

WIZ056-057-062-063-064-067-068-202000-
SOUTH CENTRAL WISCONSIN

CITY           SKY/WX    TMP DP  RH WIND       PRES   REMARKS
REEDSBURG      SUNNY     74  48  40 S14       29.99F
BARABOO/DELLS  SUNNY     73  45  36 S13       30.00F
LONE ROCK      SUNNY     74  53  48 S10       30.00F
MINERAL POINT  SUNNY     73  52  46 S12       30.03F
MADISON        PTSUNNY   73  48  41 S14       30.03F
MIDDLETON      SUNNY     76  48  37 S12G17    30.03F
WATERTOWN      SUNNY     75  49  39 SW10      30.04F
MONROE         SUNNY     73  45  35 S14       30.04F
JANESVILLE     MOSUNNY   79  43  27 S14G23    30.05F
$$

WIZ051-052-058>065-066-070>072-202000-
SOUTHEAST WISCONSIN

CITY           SKY/WX    TMP DP  RH WIND       PRES   REMARKS
MILWAUKEE      PTSUNNY   79  51  37 SW12      30.06F
WAUKESHA       SUNNY     73  46  38 S14G22    30.07F
MILWAUKEE/TIMM SUNNY     77  41  27 SW13      30.06F
RACINE         SUNNY     77  53  43 SE10G18   30.08F
BURLINGTON     SUNNY     78  51  38 S17       30.06F
KENOSHA        SUNNY     77  50  38 SW14      30.08F
FOND DU LAC    SUNNY     76  46  34 SW12G22   30.02F
SHEBOYGAN      SUNNY     77  46  33 SW15      30.03F
WEST BEND      SUNNY     75  45  33 S12G17    30.04F
JUNEAU         SUNNY     74  48  39 S12       30.05F
$$

LSZ147-162-202000-
LAKE SUPERIOR

STATION/POSITION TIME  TEMP    WIND        PRES    WAVE
                       AIR SEA DIR/SP/G            HT/PER
                 (UTC) (F)     (DEG/KT/KT) (MB)    (FT/S)
W MID LAKE BUOY  1850   56 53              1009.5F   1
DEVILS ISLAND    1900   60     360/  6/  7 1008.7F
PORT WING        1730           20/ 10/ 11 1009.5F
SAXON HARBOR     1840   80     200/ 12/ 18 1008.8F
$$

LMZ867-665-643>646-202000-
LAKE MICHIGAN

STATION/POSITION TIME  TEMP    WIND        PRES    WAVE
                       AIR SEA DIR/SP/G            HT/PER
                 (UTC) (F)     (DEG/KT/KT) (MB)    (FT/S)
S GREEN BAY BUOY 1800   62 58  220/ 10/ 12 1016.0
N MID LAKE BUOY  1850   60 58  190/ 17/ 19 1016.6F   4/ 6
NORTHPORT PIER   1840   62     160/  8/ 15 1015.6F
KEWAUNEE LAKESHO 1842   55     180/ 12/ 15 1015.8F
SHEBOYGAN LAKESH 1900   58     170/ 18/ 19 1016.7F
PORT WASHINGTON  1830   62     180/  7/ 10 1018.3F
ATWATER BUOY     1709   57 53  150/  8/ 10 1019.0F
MILWAUKEE LAKESH 1850   74     200/ 12/ 16   N/A
S MID LAKE BUOY  1850   62 61  190/ 12/ 14 1019.5F   2/ 4
KENOSHA   LAKESH 1900   60     170/ 10/ 13 1018.3
$$

TC  - TEMPERATURE IN CELSIUS
VSB - VISIBILITY IN STATUTE MILES
WCI - WIND CHILL INDEX
HX  - HEAT INDEX





USA.gov is the U.S. government's official web portal to all federal, state and local government web resources and services.